Flag for U.S.A. Weather past 2 weeks in Atascadero, California, U.S.A.

Now
52 °F

Clear.


Feels Like: 49 °F
Forecast: 46 / 73 °F
Wind: 9 mph from North

Location: Paso Robles Municipal Airport

Current Time: Mar 31, 2015 at 3:04:51 AM

Latest Report: Mar 31, 2015 at 1:53 AM


Visibility: 10 mi

Pressure: 30.03 "Hg

Humidity: 72%

Dew point: 43 °F

Location of AtascaderoLocation

Historic Weather in Atascadero — Graph

°F

Atascadero temperature yesterday

Maximum temperature yesterday: 88 °F (at 2:53 PM)
Minimum temperature yesterday: 41 °F (at 6:53 AM)
Average temperature yesterday: 63 °F

Past Weeks' High & Low Weather Summary

 TemperatureHumidityPressure
High90 °F (Mar 27, 3:53 PM)93% (Mar 23, 3:53 AM)30.27 "Hg (Mar 23, 3:53 AM)
Low38 °F (Mar 21, 6:53 AM)10% (Mar 30, 3:53 PM)29.91 "Hg (Mar 16, 4:53 PM)
Average62 °F55%30.08 "Hg
* Reported Mar 16 1:53 AM — Mar 31 1:53 AM, Atascadero, Weather by CustomWeather, © 2015

Note: Actual official high and low records may vary slightly from our data, if they occured in-between our weather recording intervals... More about our weather records

Advertising

Atascadero weather history for previous 24 hours

 ConditionsComfort  
Time TempWeatherWind HumidityBarometerVisibility
1:53 AM
Tue, Mar 31
52 °FClear.9 mph72%30.03 "Hg10 mi
12:53 AM53 °FClear.9 mph69%30.03 "Hg10 mi
11:53 PM
Mon, Mar 30
55 °FClear.15 mph64%30.03 "Hg10 mi
10:53 PM57 °FClear.15 mph58%30.03 "Hg10 mi
9:53 PM59 °FClear.17 mph51%30.01 "Hg10 mi
8:53 PM62 °FClear.13 mph44%30.01 "Hg10 mi
7:53 PM65 °FSunny.16 mph45%29.98 "Hg10 mi
6:53 PM75 °FSunny.13 mph28%29.95 "Hg10 mi
5:53 PM84 °FSunny.12 mph18%29.92 "Hg10 mi
4:53 PM86 °FSunny.15 mph21%29.92 "Hg10 mi
3:53 PM88 °FSunny.6 mph10%29.93 "Hg10 mi
2:53 PM88 °FSunny.5 mph14%29.96 "Hg10 mi
1:53 PM85 °FSunny.3 mph15%29.98 "Hg10 mi
12:53 PM84 °FSunny.6 mph19%30.01 "Hg10 mi
11:53 AM76 °FSunny.No wind26%30.03 "Hg10 mi
10:53 AM68 °FSunny.No wind35%30.05 "Hg10 mi
9:53 AM60 °FSunny.No wind42%30.06 "Hg10 mi
8:53 AM54 °FSunny.No wind51%30.06 "Hg10 mi
7:53 AM46 °FSunny.No wind71%30.06 "Hg10 mi
6:53 AM41 °FClear.3 mph80%30.04 "Hg10 mi
5:53 AM44 °FClear.3 mph76%30.03 "Hg10 mi
4:53 AM45 °FClear.No wind71%30.02 "Hg10 mi
3:53 AM45 °FClear.3 mph71%30.02 "Hg10 mi
Weather by CustomWeather, © 2015

See weather overviewHow to use our weather pages